Regional Weather Roundup
Issued by NWS

Home | Current Version | Previous Version | Text Only | Print | Product List | Glossary On
Versions: 1 2 3 4 5 6 7 8 9 10 11 12 13 14 15 16 17 18 19 20 21 22 23 24 25 26 27 28 29 30 31 32 33 34 35 36 37 38 39 40 41 42 43 44 45 46 47 48 49 50
000
ASUS43 KLSX 140607
RWRMO

WEATHER SUMMARY FOR MISSOURI
NATIONAL WEATHER SERVICE SPRINGFIELD MO
1200 AM CST THU DEC 14 2017

NOTE: "FAIR" INDICATES FEW OR NO CLOUDS BELOW 12,000 FEET WITH NO
       SIGNIFICANT WEATHER AND/OR OBSTRUCTIONS TO VISIBILITY.
       CURRENT SKY AND/OR WEATHER CONDITIONS ARE NOT AVAILABLE FOR
       CHILLICOTHE AND FARMINGTON.

MOZ001>031-035>038-043-044-053-054-140700-
...NORTHERN AND WESTERN MISSOURI...

CITY           SKY/WX    TMP DP  RH WIND       PRES   REMARKS
KANSAS CTY INT CLOUDY    37  28  70 NW6       29.97R
6HR MIN TEMP:  34; 6HR MAX TEMP:  49;

KANSAS C DTWN  CLOUDY    40  28  62 NW8       29.96F
6HR MIN TEMP:  39; 6HR MAX TEMP:  52;

LEE`S SUMMIT   PTCLDY    38  28  67 NW8       29.96S
6HR MIN TEMP:  38; 6HR MAX TEMP:  51;

ST JOSEPH      CLOUDY    39  29  67 N9        29.98R
6HR MIN TEMP:  34; 6HR MAX TEMP:  47;

CHILLICOTHE      N/A     37  22  54 N10G21    29.97R WCI  30
6HR MIN TEMP:  37; 6HR MAX TEMP:  46;

KIRKSVILLE     CLOUDY    34  26  72 N15G22    29.92R WCI  24
6HR MIN TEMP:  34; 6HR MAX TEMP:  42;


$$
MOZ066>068-077>081-088>096-101>105-140700-
...SOUTHWEST MISSOURI...

CITY           SKY/WX    TMP DP  RH WIND       PRES   REMARKS
SPRINGFIELD    CLEAR     41  28  60 N9        29.90R
6HR MIN TEMP:  40; 6HR MAX TEMP:  52;

JOPLIN         CLEAR     38  28  67 N8        29.94R
6HR MIN TEMP:  38; 6HR MAX TEMP:  52;

BRANSON        CLEAR     41  27  56 NW9       29.90S

$$
MOZ032>034-039>042-045>050-055>058-069>072-140700-
...CENTRAL MISSOURI...

CITY           SKY/WX    TMP DP  RH WIND       PRES   REMARKS
COLUMBIA       CLOUDY    38  23  55 N13       29.93R WCI  30
6HR MIN TEMP:  38; 6HR MAX TEMP:  51;

JEFFERSON CITY CLOUDY    41  25  53 NW15G22   29.94R
6HR MIN TEMP:  41; 6HR MAX TEMP:  51;

ROLLA          CLOUDY    40  28  62 NW12      29.89R
6HR MIN TEMP:  40; 6HR MAX TEMP:  51;

SEDALIA        CLOUDY    41  28  60 N12       29.96R
6HR MIN TEMP:  40; 6HR MAX TEMP:  51;

WHITEMAN AFB   PTCLDY    38  27  65 NW3       29.91R
WARRENSBURG    MOCLDY    34  27  75 NW5       29.95F WCI  30
OSAGE BEACH    CLEAR     40  27  59 NW5       29.93R

$$
MOZ051-052-059>065-140700-
...EAST CENTRAL MISSOURI...

CITY           SKY/WX    TMP DP  RH WIND       PRES   REMARKS
ST LOUIS INTL  CLOUDY    39  24  55 NW14      29.89R
6HR MIN TEMP:  39; 6HR MAX TEMP:  51;

SPIRIT OF STL  CLOUDY    40  24  53 NW13G28   29.89R
6HR MIN TEMP:  40; 6HR MAX TEMP:  50;

ST CHARLES     CLOUDY    38  23  55 NW15G30   29.89R WCI  29
6HR MIN TEMP:  38; 6HR MAX TEMP:  49;


$$
MOZ072>076-082>087-097>100-106>115-140700-
...SOUTH CENTRAL AND SOUTHEAST MISSOURI...

CITY           SKY/WX    TMP DP  RH WIND       PRES   REMARKS
CAPE GIRARDEAU CLEAR     41  30  65 N12       29.86R
6HR MIN TEMP:  32; 6HR MAX TEMP:  46;

FARMINGTON     CLOUDY    41  29  62 NW13      29.87R
6HR MIN TEMP:  40; 6HR MAX TEMP:  53;

POPLAR BLUFF   CLEAR     45  27  49 NW6       29.83R
6HR MIN TEMP:  42; 6HR MAX TEMP:  53;

WEST PLAINS    CLEAR     42  26  53 NW8       29.87R
6HR MIN TEMP:  40; 6HR MAX TEMP:  50;


$$



USA.gov is the U.S. government's official web portal to all federal, state and local government web resources and services.